Regional Weather Roundup
Issued by NWS

Home | Current Version | Previous Version | Text Only | Print | Product List | Glossary Off
Versions: 1 2 3 4 5 6 7 8 9 10 11 12 13 14 15 16 17 18 19 20 21 22 23 24 25 26 27 28 29 30 31 32 33 34 35 36 37 38 39 40 41 42 43 44 45 46 47 48 49 50

000
ASUS45 KCYS 230310
RWRWY

WYOMING REGIONAL WEATHER ROUNDUP
NATIONAL WEATHER SERVICE CHEYENNE WY
800 PM MST WED NOV 22 2017

NOTE:  "FAIR" INDICATES FEW OR NO CLOUDS BELOW 12,000 FEET
WITH NO SIGNIFICANT WEATHER AND/OR OBSTRUCTIONS TO VISIBILITY.

WYZ001-230400-
YELLOWSTONE NATIONAL PARK

CITY           SKY/WX    TMP DP  RH WIND       PRES   REMARKS
LK YELLOWSTONE   N/A     39  37  92 VRB6      30.43R WCI  35
W YELLOWSTONE  NOT AVBL

$$
WYZ002>013-054>058-071-098>099-230400-
NORTHERN WYOMING

CITY           SKY/WX    TMP DP  RH WIND       PRES   REMARKS
JACKSON        CLOUDY    45  39  79 SW8       30.39F
CODY           FAIR      57  39  51 W16G30    30.22F
GREYBULL       FAIR      41  35  79 SE6       30.21S
WORLAND        FAIR      32  31  96 CALM      30.22S
SHERIDAN       FAIR      43  36  76 E5        30.11F
BUFFALO        FAIR      50  31  48 W7        30.17S
GILLETTE       FAIR      45  36  70 W8        30.13F
HULETT         FAIR      54  37  54 SW6       30.13R
NEWCASTLE      FAIR      45  34  65 N9        30.14S

$$
WYZ014>020-022>026-101>103-230400-
CENTRAL WYOMING

CITY           SKY/WX    TMP DP  RH WIND       PRES   REMARKS
BIG PINEY      FAIR      31  31 100 CALM      30.43S
PINEDALE       SNOW      32  32 100 NW3       30.43F VSB<1/4
DUBOIS         FAIR      43  34  70 NW12      30.35R
LANDER         FAIR      44  35  70 W3        30.28R
RIVERTON       FAIR      51  37  58 W13       30.26S
CASPER         FAIR      48  38  68 SW12      30.25R
DOUGLAS        FAIR      42  38  85 N8        30.21R

$$
WYZ021-027>030-104>119-230400-
SOUTHERN WYOMING

CITY           SKY/WX    TMP DP  RH WIND       PRES   REMARKS
EVANSTON       FAIR      44  38  79 SW7       30.45F
KEMMERER       FAIR      41  36  81 CALM      30.46S
FORT BRIDGER   FAIR      49  39  68 SW12G17   30.47F
ROCK SPRINGS   FAIR      47  38  71 W14       30.41F
DIXON          MOCLDY    44  37  76 NW3       30.45S
RAWLINS        FAIR      46  39  76 W23G31    30.34F
SARATOGA       FAIR      43  36  75 CALM      30.40S
LARAMIE        FAIR      40  36  86 W10       30.35R WCI  33
CHEYENNE       FAIR      49  38  65 NW12      30.27R
TORRINGTON     FAIR      48  40  73 W6        30.17R
PINE BLUFFS    FAIR      52  37  58 NW24G32   30.21S

$$



USA.gov is the U.S. government's official web portal to all federal, state and local government web resources and services.